Погода в Бхагалпуре

Индия     25°14′49″N   86°59′04″E
темп.,
°C
ветер,
м/с
пор.,
м/с
влажн.,
%
обл.,
%
осадки,
мм/ч
давл.,
гПа
погр.,
м
8 мая, сб
сб823:30+30ю3851100 0.2 1009464
02:30+28юв36605 0.4 1008491
05:30+27вюв456070 1.3 1009332
08:30+31вюв43460 0.3 1011903
11:30+36юв12320 0.3 10082032
14:30+38юз34251 0.0 10043093
17:30+38ю232457 0.0 10022033
20:30+32всв58440 0.2 1006459
9 мая, вс
вс923:30+28всв68575 1.0 1007403
02:30+27в246298 0.9 1006203
05:30+26в36674 1.8 1006251
08:30+31в44520 0.0 1008891
11:30+36всв33363 0.0 10061810
14:30+38зсз262798 0.1 10023607
17:30+28вюв6106194 3.6 1001224
20:30+31ссв335131 0.1 1004118
10 мая, пн
пн1023:30+27вюв6116773 0.1 1005391
02:30+28юв48637 0.0 1003392
05:30+27в34684 0.0 1004225
08:30+31в33521 0.0 1005838
11:30+36в32360 0.0 10041743
14:30+39ссв352640 0.0 9992367
17:30+37вюв33283 0.1 998312
20:30+33в353948 0.2 1001173
11 мая, вт
вт1123:30+28всв10147036 0.9 1002458
02:30+29ююв596316 0.0 1001520
05:30+28вюв687098 0.0 1001292
08:30+31в445515 0.0 10051045
11:30+36вюв544145 0.0 10041773
14:30+39всв42302 0.0 9992384
17:30+28всв345679 6.4 999193
20:30+24вюв91276100 18.8 1000257
12 мая, ср
ср1223:30+24св6127799 20.7 1006396
02:30+25в477171 0.1 1002327
05:30+24св358167 0.2 1006389
08:30+27в676848 0.0 1006945
11:30+31вюв455141 0.0 10051570
14:30+35вюв54380 0.0 10011824
17:30+34всв66401 0.0 10001781
20:30+28всв6106139 0.1 1002593